Location: Lecco
(45.8566°N, 9.3977°E)
Time: 21:13:16
(UTC+02:00)

Vanguard 1 Rocket - Pass Details

Date: 20 August 2020
Orbit: 655 x 4221 km, 34.3° (Epoch: 30 September)

Event Time Altitude Azimuth Distance (km) Brightness Sun altitude
Exits shadow 03:32:52 23° 179° (S) 4,414 10.4 -25.2°
Maximum altitude 03:37:00 26° 158° (SSE) 3,806 10.2 -24.7°
Drops below altitude 10° 03:45:30 10° 107° (ESE) 3,927 10.9 -23.9°
Sets 03:48:39 0° 94° (E) 4,502 11.4 -23.5°
